Погода в Удачном

Россия / Республика Саха (Якутия)     66°24′25″N   112°18′22″E
темп.,
°C
ветер,
м/с
пор.,
м/с
влажн.,
%
обл.,
%
осадки,
мм/ч
давл.,
гПа
погр.,
м
1 марта, пн
пн100:00−40з229860 0.0 103018
03:00−41з229758 0.0 103018
06:00−42з229658 0.0 103018
09:00−42з229737 0.0 103018
12:00−37з238972 0.0 1029152
15:00−34з348782 0.0 1028291
18:00−37зсз239390 0.0 102819
21:00−41з2210076 0.0 102918
2 марта, вт
вт200:00−41з1210074 0.0 102818
03:00−42з1210072 0.0 102818
06:00−42з1210028 0.0 102818
09:00−43з1110029 0.0 102818
12:00−37з119031 0.0 1027124
15:00−34зсз228637 0.0 1027275
18:00−37сз229381 0.0 102719
21:00−41зсз1110063 0.0 102918
3 марта, ср
ср300:00−42з1110042 0.0 102918
03:00−41з1110057 0.0 102918
06:00−42з1110069 0.0 102918
09:00−42з1110067 0.0 102918
12:00−36з119056 0.0 1028108
15:00−34зсз118459 0.0 1027237
18:00−36зсз119420 0.0 102819
21:00−39з1110010 0.0 103019
4 марта, чт
чт400:00−40з111000 0.0 103019
03:00−40з12970 0.0 103018
06:00−40з22950 0.0 103019
09:00−39з22890 0.0 103118
12:00−33з24790 0.0 1030173
15:00−30зсз34790 0.0 1030285
18:00−32зсз23860 0.0 103119
21:00−37з11910 0.0 103319
5 марта, пт
пт500:00−37зюз11890 0.0 103219
03:00−37зюз11900 0.0 103319
06:00−37ю11870 0.0 103319
09:00−36ю22770 0.0 103319
12:00−30юв22730 0.0 1031120
15:00−27ююв33790 0.0 1029221
18:00−29юв229114 0.0 102919
21:00−31юв229518 0.0 102919